This is the latest recevied weather packets stored in our database for station/object HB9ZRH-10. If no packets are shown the sender has not sent any weather packets the latest 10 day(s).
| Time | Temp. | Humidity | Pressure | Rain* | Wind** | Luminosity | Snow |
|---|---|---|---|---|---|---|---|
| 1777947919 | 23.33° C | 41% | 1010.7 hPa | - | - | - | - |
| 1777947619 | 24.44° C | 40% | 1010.7 hPa | - | - | - | - |
| 1777947319 | 24.44° C | 40% | 1010.7 hPa | - | - | - | - |
| 1777947019 | 23.89° C | 41% | 1010.7 hPa | - | - | - | - |
| 1777946719 | 23.33° C | 41% | 1010.7 hPa | - | - | - | - |
| 1777946419 | 22.78° C | 42% | 1010.6 hPa | - | - | - | - |
| 1777946119 | 22.22° C | 42% | 1010.7 hPa | - | - | - | - |
| 1777945819 | 24.44° C | 40% | 1010.8 hPa | - | - | - | - |
| 1777945519 | 24.44° C | 41% | 1010.8 hPa | - | - | - | - |
| 1777945219 | 22.78° C | 42% | 1010.7 hPa | - | - | - | - |
| 1777944919 | 22.22° C | 42% | 1010.7 hPa | - | - | - | - |
| 1777944619 | 23.33° C | 42% | 1010.8 hPa | - | - | - | - |
| 1777944319 | 23.33° C | 42% | 1011 hPa | - | - | - | - |
| 1777944019 | 23.33° C | 42% | 1010.9 hPa | - | - | - | - |
| 1777943719 | 23.33° C | 42% | 1011 hPa | - | - | - | - |
| 1777943419 | 23.33° C | 43% | 1011.1 hPa | - | - | - | - |
| 1777943119 | 22.22° C | 44% | 1011.2 hPa | - | - | - | - |
| 1777942819 | 21.11° C | 44% | 1011.3 hPa | - | - | - | - |
| 1777942519 | 20.56° C | 45% | 1011.4 hPa | - | - | - | - |
| 1777942219 | 19.44° C | 45% | 1011.5 hPa | - | - | - | - |
| 1777941919 | 20.56° C | 45% | 1011.6 hPa | - | - | - | - |
| 1777941619 | 20° C | 45% | 1011.7 hPa | - | - | - | - |
| 1777941319 | 17.22° C | 47% | 1011.8 hPa | - | - | - | - |
| 1777941019 | 17.78° C | 46% | 1011.8 hPa | - | - | - | - |
| 1777940719 | 17.22° C | 47% | 1011.9 hPa | - | - | - | - |
* Rain since midnight (hover to see other rain measurements)
** Current wind speed in m/s (hover to see current wind gust speed)